Date String (YYYY-MM-DD hh:mm:ss) UTC,Instrument flags,Ambient pressure (hPa),Sample flow (lpm),Bypass flow (lpm),Sample temperature (°C),Ambient temperature (°C),ASC tube jacket temperature (°C),LED temperature (°C),Box temperature (°C),Sample RH (%),Span deviation,Mass concentration (μg/m³),Mass concentration (μg/m³),Mass concentration (μg/m³)
DateTimeUTC,F1_M11,P_M11,Q1_M11,Q2_M11,T1_M11,T2_M11,T3_M11,T4_M11,T5_M11,U1_M11,ZSPAN_M11,X0_M11,X2_M11,X1_M11
2021-10-22 02:00:00,,0831.0,5.00,0.00,28.9,28.1,00.0,38.0,30.6,10.0,0000.0,0016.19,0004.93,0003.55
2021-10-22 02:01:00,,0830.9,5.00,0.00,28.9,28.1,00.0,38.0,30.6,10.1,0000.0,0016.48,0004.95,0003.55
2021-10-22 02:02:00,,0830.9,4.99,0.00,28.9,28.0,00.0,38.0,30.6,10.1,0000.0,0016.17,0004.99,0003.54
2021-10-22 02:03:00,,0830.9,5.00,0.00,28.9,28.0,00.0,38.0,30.6,10.0,0000.0,0015.62,0004.96,0003.55
2021-10-22 02:04:00,,0830.9,4.99,0.00,28.9,28.0,00.0,38.0,30.6,10.0,0000.0,0016.07,0004.98,0003.56
2021-10-22 02:05:00,,0830.9,5.01,0.00,28.9,28.0,00.0,38.0,30.6,10.0,0000.0,0016.06,0004.99,0003.56
2021-10-22 02:06:00,,0830.9,5.00,0.00,28.9,28.0,00.0,38.0,30.6,10.0,0000.0,0015.43,0005.06,0003.58
2021-10-22 02:07:00,,0830.9,5.02,0.00,28.9,28.0,00.0,38.0,30.6,10.0,0000.0,0015.68,0005.11,0003.61
2021-10-22 02:08:00,,0830.9,4.99,0.00,28.9,28.0,00.0,38.0,30.6,09.9,0000.0,0017.03,0005.12,0003.62
2021-10-22 02:09:00,,0830.9,4.99,0.00,28.8,28.0,00.0,38.0,30.5,09.9,0000.0,0017.60,0005.11,0003.66
2021-10-22 02:10:00,,0830.9,5.01,0.00,28.8,28.0,00.0,38.0,30.5,09.9,0000.0,0017.54,0005.14,0003.68
2021-10-22 02:11:00,,0830.9,5.00,0.00,28.8,28.0,00.0,38.0,30.5,09.9,0000.0,0017.25,0005.21,0003.68
2021-10-22 02:12:00,,0830.8,4.98,0.00,28.8,28.0,00.0,38.0,30.5,09.8,0000.0,0016.82,0005.21,0003.68
2021-10-22 02:13:00,,0830.8,4.99,0.00,28.8,28.0,00.0,38.0,30.5,09.8,0000.0,0017.10,0005.21,0003.68
2021-10-22 02:14:00,,0830.8,4.99,0.00,28.8,28.0,00.0,38.0,30.5,09.8,0000.6,0017.32,0005.19,0003.68
2021-10-22 02:15:00,,0830.7,5.00,0.00,28.8,28.0,00.0,38.0,30.5,09.8,0000.2,0017.23,0005.16,0003.67
2021-10-22 02:16:00,,0830.7,5.01,0.00,28.8,28.0,00.0,37.9,30.5,09.8,0000.0,0016.82,0005.15,0003.67
2021-10-22 02:17:00,,0830.8,4.99,0.00,28.8,28.0,00.0,37.9,30.5,09.8,0000.0,0017.49,0005.14,0003.65
2021-10-22 02:18:00,,0830.8,4.99,0.00,28.8,27.9,00.0,37.9,30.5,09.8,0000.0,0016.73,0005.07,0003.62
2021-10-22 02:19:00,,0830.8,5.02,0.00,28.8,27.9,00.0,37.9,30.5,09.8,0000.0,0016.19,0005.06,0003.61
2021-10-22 02:20:00,,0830.9,5.00,0.00,28.8,27.9,00.0,37.9,30.5,09.8,0000.0,0016.05,0005.06,0003.60
2021-10-22 02:21:00,,0830.9,5.00,0.00,28.8,27.9,00.0,37.9,30.5,09.8,0000.0,0017.15,0005.02,0003.56
2021-10-22 02:22:00,,0830.9,5.01,0.00,28.8,27.9,00.0,37.9,30.5,09.8,0000.0,0016.82,0004.88,0003.55
2021-10-22 02:23:00,,0830.9,5.00,0.00,28.8,27.9,00.0,37.9,30.5,09.8,0000.0,0017.28,0004.87,0003.55
2021-10-22 02:24:00,,0830.9,5.00,0.00,28.8,27.9,00.0,37.9,30.5,09.8,0000.0,0016.66,0004.85,0003.55
2021-10-22 02:25:00,,0830.9,5.01,0.00,28.8,27.9,00.0,37.9,30.5,09.8,0000.0,0015.95,0004.87,0003.56
2021-10-22 02:26:00,,0830.9,4.99,0.00,28.7,27.9,00.0,37.9,30.5,09.8,0000.0,0015.99,0004.88,0003.54
2021-10-22 02:27:00,,0830.9,5.00,0.00,28.7,27.9,00.0,37.9,30.5,09.8,0000.0,0015.55,0004.86,0003.54
2021-10-22 02:28:00,,0830.9,5.01,0.00,28.7,27.9,00.0,37.9,30.4,09.8,0000.0,0015.36,0004.80,0003.54
2021-10-22 02:29:00,,0830.9,5.00,0.00,28.7,27.9,00.0,37.9,30.4,09.8,0000.0,0015.51,0004.79,0003.55
2021-10-22 02:30:00,,0830.9,5.00,0.00,28.7,27.9,00.0,37.9,30.4,09.8,0000.0,0016.39,0004.76,0003.53
2021-10-22 02:31:00,,0830.9,5.01,0.00,28.7,27.9,00.0,37.9,30.4,09.8,0000.0,0016.00,0004.73,0003.50
2021-10-22 02:32:00,,0830.9,4.99,0.00,28.7,27.9,00.0,37.9,30.4,09.8,0000.0,0014.73,0004.68,0003.49
2021-10-22 02:33:00,,0830.9,5.00,0.00,28.7,27.9,00.0,37.9,30.4,09.8,0000.0,0015.30,0004.72,0003.48
2021-10-22 02:34:00,,0830.9,4.99,0.00,28.7,27.9,00.0,37.9,30.5,09.8,0000.0,0015.58,0004.77,0003.49
2021-10-22 02:35:00,,0830.9,5.01,0.00,28.7,27.9,00.0,37.8,30.5,09.7,0000.0,0016.48,0004.85,0003.50
2021-10-22 02:36:00,,0830.9,4.99,0.00,28.7,27.9,00.0,37.8,30.5,09.7,0000.0,0018.08,0004.90,0003.51
2021-10-22 02:37:00,,0830.9,5.00,0.00,28.7,27.9,00.0,37.8,30.4,09.6,0000.0,0018.66,0004.96,0003.54
2021-10-22 02:38:00,,0830.9,5.00,0.00,28.7,27.9,00.0,37.8,30.4,09.6,0000.0,0019.17,0005.04,0003.56
2021-10-22 02:39:00,,0831.0,4.99,0.00,28.7,27.9,00.0,37.8,30.4,09.7,0000.0,0019.01,0005.03,0003.56
2021-10-22 02:40:00,,0830.9,4.99,0.00,28.7,27.8,00.0,37.8,30.4,09.7,0000.0,0018.41,0005.02,0003.54
2021-10-22 02:41:00,,0830.9,5.00,0.00,28.7,27.8,00.0,37.8,30.4,09.7,0000.0,0017.82,0004.98,0003.53
2021-10-22 02:42:00,,0830.9,5.01,0.00,28.7,27.8,00.0,37.8,30.4,09.7,0000.0,0017.93,0004.97,0003.53
2021-10-22 02:43:00,,0830.9,4.99,0.00,28.7,27.8,00.0,37.8,30.4,09.7,0000.0,0017.92,0004.93,0003.53
2021-10-22 02:44:00,,0830.9,5.00,0.00,28.6,27.8,00.0,37.8,30.4,09.7,0000.0,0017.98,0004.90,0003.53
2021-10-22 02:45:00,,0830.9,5.00,0.00,28.6,27.8,00.0,37.8,30.4,09.6,0000.0,0017.14,0004.83,0003.52
2021-10-22 02:46:00,,0830.9,5.00,0.00,28.6,27.8,00.0,37.8,30.4,09.7,0000.0,0017.20,0004.76,0003.50
2021-10-22 02:47:00,,0830.9,5.00,0.00,28.6,27.8,00.0,37.8,30.3,09.7,0000.0,0016.80,0004.71,0003.48
2021-10-22 02:48:00,,0830.9,5.00,0.00,28.6,27.8,00.0,37.8,30.3,09.7,0000.0,0015.71,0004.67,0003.44
2021-10-22 02:49:00,,0830.9,5.00,0.00,28.6,27.8,00.0,37.8,30.3,09.7,0000.0,0014.98,0004.56,0003.40
2021-10-22 02:50:00,,0830.9,4.99,0.00,28.6,27.8,00.0,37.8,30.3,09.6,0000.0,0014.85,0004.48,0003.37
2021-10-22 02:51:00,,0830.9,5.01,0.00,28.6,27.7,00.0,37.8,30.3,09.6,0000.0,0016.03,0004.50,0003.38
2021-10-22 02:52:00,,0830.9,5.00,0.00,28.6,27.7,00.0,37.7,30.3,09.5,0000.0,0016.39,0004.50,0003.40
2021-10-22 02:53:00,,0830.9,5.00,0.00,28.6,27.7,00.0,37.7,30.3,09.5,0000.0,0016.52,0004.51,0003.41
2021-10-22 02:54:00,,0830.9,4.99,0.00,28.6,27.7,00.0,37.7,30.3,09.5,0000.0,0016.48,0004.58,0003.44
2021-10-22 02:55:00,,0830.9,4.99,0.00,28.6,27.8,00.0,37.7,30.3,09.4,0000.0,0017.39,0004.72,0003.48
2021-10-22 02:56:00,,0830.9,5.01,0.00,28.6,27.8,00.0,37.7,30.3,09.4,0000.0,0018.72,0004.82,0003.51
2021-10-22 02:57:00,,0830.9,5.00,0.00,28.6,27.8,00.0,37.7,30.3,09.4,0000.0,0019.11,0004.89,0003.54
2021-10-22 02:58:00,,0830.9,5.01,0.00,28.6,27.7,00.0,37.7,30.3,09.6,0000.0,0018.99,0004.89,0003.56
2021-10-22 02:59:00,,0830.9,5.00,0.00,28.6,27.7,00.0,37.7,30.3,09.6,0000.0,0019.37,0004.86,0003.57
